Home   Weather   Riverside   Past weeks

Flag for USA Past Weather in Riverside, California, USA — Yesterday and Last 2 Weeks

Now
64 °F

Clear.


Feels Like: 64 °F
Forecast: 44 / 67 °F
Wind: No wind

Location: Riverside Municipal Airport

Current Time: Dec 4, 2016 at 6:34:44 pm

Latest Report: Dec 4, 2016 at 5:53 pm


Visibility: 10 mi

Pressure: 29.96 "Hg

Humidity: 34%

Dew Point: 35 °F

Location of RiversideLocation

Past Weather in Riverside — Graph

°F

Riverside Temperature Yesterday

Maximum temperature yesterday: 72 °F (at 2:53 pm)
Minimum temperature yesterday: 53 °F (at 3:53 am)
Average temperature yesterday: 60 °F

High & Low Weather Summary for the Past Weeks

 TemperatureHumidityPressure
High78 °F (Nov 25, 1:53 pm)100% (Nov 21, 12:53 am)30.18 "Hg (Nov 21, 12:53 am)
Low40 °F (Nov 26, 5:53 am)8% (Dec 3, 12:53 pm)29.80 "Hg (Nov 28, 3:53 pm)
Average57 °F54%30.00 "Hg
* Reported Nov 19 4:53 pm — Dec 4 4:53 pm, Riverside, Weather by CustomWeather, © 2016

Note: Actual official high and low records may vary slightly from our data, if they occured in-between our weather recording intervals... More about our weather records

Advertising

Riverside Weather History for the Previous 24 Hours

Scroll right to see more
 ConditionsComfort  
Time TempWeatherWind HumidityBarometerVisibility
4:53 pm
Sun, Dec 4
68 °FPassing clouds.No wind25%29.95 "Hg10 mi
3:53 pm73 °FSunny.7 mph19%29.95 "Hg10 mi
2:53 pm74 °FSunny.No wind16%29.95 "Hg10 mi
1:53 pm75 °FSunny.6 mph14%29.96 "Hg10 mi
12:53 pm73 °FSunny.3 mph15%29.97 "Hg10 mi
11:53 am71 °FSunny.6 mph19%30.00 "Hg10 mi
10:53 am67 °FSunny.No wind24%30.03 "Hg10 mi
9:53 am63 °FSunny.No wind29%30.06 "Hg10 mi
8:53 am56 °FSunny.No wind37%30.06 "Hg10 mi
7:53 am50 °FSunny.5 mph43%30.06 "Hg10 mi
6:53 am45 °FSunny.5 mph49%30.06 "Hg10 mi
5:53 am46 °FClear.3 mph46%30.03 "Hg10 mi
4:53 am48 °FClear.5 mph43%30.03 "Hg10 mi
3:53 am51 °FClear.9 mph35%30.02 "Hg10 mi
2:53 am53 °FClear.6 mph31%30.03 "Hg10 mi
1:53 am55 °FClear.6 mph28%30.03 "Hg10 mi
12:53 am52 °FClear.8 mph34%30.03 "Hg10 mi
11:53 pm
Sat, Dec 3
56 °FClear.5 mph27%30.04 "Hg10 mi
10:53 pm54 °FClear.5 mph30%30.03 "Hg10 mi
9:53 pm54 °FClear.5 mph30%30.03 "Hg10 mi
8:53 pm56 °FClear.3 mph26%30.02 "Hg10 mi
7:53 pm57 °FClear.6 mph24%30.01 "Hg10 mi
6:53 pm62 °FClear.6 mph17%30.01 "Hg10 mi
Weather by CustomWeather, © 2016

See weather overviewHow to use our weather pages